Hourly Data Report for January 21, 2012

HALIFAX STANFIELD INT'L A
NOVA SCOTIA

44°52'48.060" N
63°30'00.050" W
145.40 m
8202250
71395
YHZ

Download Data

Hourly Data (January 2012)
Hourly Data Report for January 21, 2012
TIME
LST
Temp Definition
°C
Dew Point Definition
°C
Rel Hum Definition
%
Precip. Amount Definition
mm

Wind Dir Definition
10's deg

Wind Spd Definition
km/h
Visibility Definition
km
Stn Press Definition
kPa
Hmdx Definition


Wind Chill Definition


Weather Definition


00:00 -6.1 -8.2 85   27 19 24.1 99.83   -13 Mostly Cloudy
01:00 -6.8 -9.0 84   27 28 24.1 99.88   -15 Mostly Cloudy
02:00 -7.4 -9.6 84   28 26 24.1 99.95   -16 Mainly Clear
03:00 -8.4 -10.4 85   28 19 24.1 100.02   -16 Mainly Clear
04:00 -8.8 -10.9 85   28 17 24.1 100.06   -16 Mainly Clear
05:00 -9.4 -11.3 86   27 9 24.1 100.13   -14 Mainly Clear
06:00 -10.0 -11.7 87   27 9 24.1 100.19   -15 Mainly Clear
07:00 -10.8 -12.5 87   27 9 24.1 100.22   -16 Mainly Clear
08:00 -11.0 -12.6 88   26 15 24.1 100.38   -18 Mainly Clear
09:00 -9.5 -11.4 86   24 9 24.1 100.43   -14 Mainly Clear
10:00 -8.3 -10.7 83   26 13 24.1 100.44   -14 Mostly Cloudy
11:00 -7.5 -10.3 80   28 15 24.1 100.38   -14 Cloudy
12:00 -6.3 -9.6 77   28 15 24.1 100.34   -12 Cloudy
13:00 -5.9 -9.2 77   25 7 24.1 100.30   -9 Cloudy
14:00 -5.6 -8.7 79   25 13 24.1 100.28   -11 Cloudy
15:00 -6.0 -9.4 77   29 11 24.1 100.29   -11 Cloudy
16:00 -6.3 -8.3 86   27 17 3.2 100.37   -13 Snow
17:00 -6.6 -8.1 89   28 7 4.0 100.38   -10 Snow
18:00 -6.9 -8.4 89   28 11 4.0 100.46   -12 Snow
19:00 -7.1 -8.6 89   31 9 12.9 100.47   -11 Snow
20:00 -7.2 -9.1 86   31 9 24.1 100.40   -12 Cloudy
21:00 -7.4 -9.5 85   31 13 24.1 100.36   -13 Cloudy
22:00 -7.5 -9.2 88   32 15 24.1 100.42   -14 Cloudy
23:00 -8.6 -12.4 74   33 17 24.1 100.41   -15 Cloudy

Notes on Data Quality.

Legend

  • E = Estimated
  • M = Missing
  • NA = Not Available*
  • [empty] = Indicates an unobserved value
Date modified: